[[{"header":{"parameterUnit":"m.s-1","parameterCategory":1,"la1":30.2991,"la2":30.254,"lo1":-89.0895,"lo2":-89.0444,"dy":0.0017,"dx":0.0017,"nx":28,"ny":28,"refTime":"2025-01-28T03:00:00:Z","depth":0,"parameterNumber":2,"parameterNumberName":"U-component_of_WINDS"},"data":[0,0,0,0,0,0,0,0,0,0,0,0,0,0,0,0,0,0,0,0,0,0,0,0,0,0,0,0,0,0,0,0,0,0,0,0,0,0,0,0,0,0,0,0,0,0,0,0,0,0,0,0,0,0,0,0,0,0,-0.5138,-0.5137,0,-0.51,-0.51,-0.5099,-0.5037,-0.5036,-0.5035,-0.5034,-0.4997,-0.4997,-0.4998,0,0,0,0,0,0,0,0,0,0,0,0,0,-0.5158,-0.5158,-0.5138,-0.5137,-0.5137,-0.51,-0.51,-0.5099,-0.5038,-0.5036,-0.5035,-0.5034,-0.4997,-0.4997,-0.4998,0,0,0,0,0,0,0,0,0,0,0,0,0,-0.5138,-0.5158,-0.5138,-0.5102,-0.5098,-0.51,-0.51,-0.5099,-0.5038,-0.5036,-0.5034,-0.5033,-0.4997,-0.4997,-0.4998,-0.5033,0,0,-0.4998,-0.4998,0,0,0,0,0,0,0,0,-0.5139,-0.5137,-0.5108,-0.5104,-0.51,-0.5072,-0.5093,-0.5077,-0.5038,-0.5061,-0.5034,-0.5032,-0.5024,-0.5021,-0.5018,-0.5031,-0.5029,-0.4998,-0.4998,-0.4998,-0.4998,0,0,0,0,0,0,0,-0.514,-0.5138,-0.5123,-0.5107,-0.5103,-0.5088,-0.5083,-0.509,-0.5052,-0.5059,-0.5054,-0.505,-0.5021,-0.5018,-0.5017,-0.5029,-0.4998,-0.4998,-0.4998,-0.4998,-0.5068,-0.5069,0,0,0,0,0,0,-0.5147,-0.514,-0.5124,-0.5122,-0.5116,-0.5089,-0.5083,-0.5083,-0.5052,-0.5046,-0.5052,-0.5048,-0.5019,-0.5017,-0.5015,-0.5055,-0.4998,-0.4998,-0.4998,-0.5066,-0.5068,-0.507,0,0,0,0,0,0,-0.5148,-0.5146,-0.5126,-0.513,-0.5126,-0.509,-0.509,-0.5083,-0.508,-0.5047,-0.504,-0.5056,-0.5017,-0.5015,-0.5028,-0.5052,-0.4998,-0.4998,-0.5064,-0.5067,-0.5069,-0.5133,0,0,0,0,0,0,-0.5148,-0.5147,-0.516,-0.513,-0.5126,-0.514,-0.5091,-0.5083,-0.508,-0.5074,-0.5049,-0.5043,-0.5016,-0.5029,-0.5029,-0.5052,-0.4998,-0.5062,-0.5065,-0.5068,-0.5129,-0.5138,-0.5145,0,0,0,0,0,-0.5149,-0.518,-0.5161,-0.5159,-0.5141,-0.5141,-0.5139,-0.5106,-0.5082,-0.5095,-0.5073,-0.5044,-0.5049,-0.5031,-0.503,-0.5053,-0.506,-0.5064,-0.5068,-0.5125,-0.5136,-0.5145,0,0,0,0,0,0,-0.5214,-0.5175,-0.5154,-0.5175,-0.5162,-0.5131,-0.5146,-0.5119,-0.5113,-0.5108,-0.5068,-0.5063,-0.5082,-0.5068,-0.5048,-0.5085,-0.505,-0.5054,-0.5094,-0.5104,-0.5112,-0.5115,-0.4999,0,0,0,0,0,-0.523,-0.5233,-0.5199,-0.5222,-0.5216,-0.5182,-0.5181,-0.5157,-0.5142,-0.5136,-0.5116,-0.5103,-0.5101,-0.5101,-0.5099,-0.5126,-0.512,-0.5142,-0.515,-0.5157,-0.5162,-0.5175,-0.5185,-0.5083,-0.5083,-0.5083,0,0,-0.5265,-0.5244,-0.5248,-0.5234,-0.5221,-0.5225,-0.5178,-0.5184,-0.5187,-0.5137,-0.5149,-0.5133,-0.5116,-0.5136,-0.5145,-0.5126,-0.5188,-0.5162,-0.5168,-0.5169,-0.518,-0.519,-0.5199,-0.5086,-0.5085,-0.5085,0,0,-0.533,-0.5314,-0.5331,-0.5319,-0.5299,-0.5276,-0.528,-0.5252,-0.524,-0.5251,-0.5213,-0.5216,-0.5215,-0.5204,-0.5198,-0.5258,-0.523,-0.5258,-0.5302,-0.5316,-0.5324,-0.5331,-0.5353,-0.5361,-0.5262,-0.5262,-0.5262,0,-0.5376,-0.5381,-0.5344,-0.5352,-0.5347,-0.5301,-0.5318,-0.5307,-0.5288,-0.5286,-0.5265,-0.5262,-0.5247,-0.5264,-0.5279,-0.5275,-0.5279,-0.5262,-0.5325,-0.5332,-0.5338,-0.5359,-0.5367,-0.5266,-0.5265,-0.5265,-0.5265,0,-0.5438,-0.5442,-0.5458,-0.5439,-0.5436,-0.5449,-0.5414,-0.5415,-0.5391,-0.537,-0.5382,-0.5361,-0.5354,-0.5356,-0.5333,-0.537,-0.5359,-0.5332,-0.5296,-0.5352,-0.5371,-0.5378,-0.5271,-0.527,-0.5269,-0.5268,0,0,-0.5545,-0.5505,-0.5512,-0.5503,-0.5477,-0.5479,-0.5489,-0.5481,-0.5482,-0.547,-0.5478,-0.5477,-0.5452,-0.5446,-0.5421,-0.5433,-0.5482,-0.5404,-0.5403,-0.5421,-0.5523,-0.5544,-0.5554,-0.5463,-0.5464,-0.5465,-0.5524,0,-0.5606,-0.5622,-0.5589,-0.5613,-0.5616,-0.5571,-0.558,-0.5565,-0.5546,-0.5545,-0.5524,-0.5524,-0.549,-0.5486,-0.5496,-0.5474,-0.5502,-0.5469,-0.5471,-0.5472,-0.5479,-0.5564,-0.5586,-0.5644,-0.5531,-0.5533,-0.5534,0,-0.568,-0.5671,-0.5695,-0.5667,-0.5667,-0.5676,-0.5665,-0.5665,-0.5647,-0.5632,-0.5624,-0.5595,-0.5603,-0.5567,-0.5579,-0.5557,-0.5555,-0.5545,-0.5546,-0.5546,-0.5507,-0.5568,-0.5661,-0.567,-0.5545,-0.5544,-0.5543,0,-0.5758,-0.5751,-0.5764,-0.5758,-0.5725,-0.5732,-0.5719,-0.5699,-0.5696,-0.5686,-0.5684,-0.5676,-0.5672,-0.5666,-0.5635,-0.5612,-0.5651,-0.5612,-0.5639,-0.564,-0.5651,-0.5651,-0.5747,-0.5648,-0.5648,-0.5648,-0.5647,0,-0.583,-0.5847,-0.5798,-0.5807,-0.5824,-0.5785,-0.5804,-0.5786,-0.5768,-0.5773,-0.5733,-0.5738,-0.5696,-0.5697,-0.5672,-0.5686,-0.5684,-0.5673,-0.5666,-0.5677,-0.5679,-0.5677,-0.5673,-0.565,-0.5649,-0.5649,-0.5648,0,-0.5921,-0.5888,-0.59,-0.5867,-0.586,-0.5874,-0.5846,-0.5853,-0.583,-0.5836,-0.5835,-0.58,-0.5799,-0.5766,-0.5758,-0.5742,-0.5766,-0.5751,-0.5772,-0.5768,-0.5798,-0.5796,-0.5897,-0.5908,-0.5801,-0.5802,-0.5803,0,-0.597,-0.5982,-0.595,-0.595,-0.5938,-0.5938,-0.5935,-0.5896,-0.5894,-0.5874,-0.5883,-0.5878,-0.5872,-0.5872,-0.5846,-0.5839,-0.5825,-0.5861,-0.5824,-0.5834,-0.5827,-0.5827,-0.5829,-0.5869,-0.5871,-0.5872,-0.5873,0,-0.6062,-0.6045,-0.6041,-0.6031,-0.6027,-0.6017,-0.6005,-0.6008,-0.5965,-0.5965,-0.5962,-0.5958,-0.5948,-0.5944,-0.5933,-0.5919,-0.589,-0.5884,-0.589,-0.5902,-0.5914,-0.5909,-0.5795,-0.5882,-0.5881,-0.5881,-0.588,-0.588,-0.6134,-0.6142,-0.6121,-0.6117,-0.6104,-0.6093,-0.6098,-0.6075,-0.6072,-0.6062,-0.6039,-0.604,-0.6021,-0.6002,-0.5991,-0.5991,-0.5973,-0.5982,-0.5985,-0.5988,-0.5994,-0.5913,-0.5989,-0.5989,-0.5988,-0.5988,-0.5988,0,-0.6224,-0.6208,-0.6205,-0.6189,-0.6186,-0.6156,-0.6141,-0.6141,-0.6143,-0.6127,-0.6121,-0.6119,-0.6114,-0.6087,-0.6079,-0.6085,-0.6071,-0.6084,-0.6084,-0.6082,-0.601,-0.6006,-0.6096,-0.6096,-0.6096,-0.6096,-0.6096,-0.6096,-0.6272,-0.6284,-0.6265,-0.627,-0.6253,-0.6254,-0.6248,-0.6238,-0.6225,-0.6223,-0.6219,-0.6201,-0.618,-0.6171,-0.6165,-0.6157,-0.6157,-0.6175,-0.6163,-0.6097,-0.6087,-0.6077,-0.6073,-0.6175,-0.6175,-0.6234,-0.6235,-0.6235]},{"header":{"parameterUnit":"m.s-1","parameterCategory":1,"la1":30.2991,"la2":30.254,"lo1":-89.0895,"lo2":-89.0444,"dy":0.0017,"dx":0.0017,"nx":28,"ny":28,"refTime":"2025-01-28T03:00:00:Z","depth":0,"parameterNumber":3,"parameterNumberName":"V-component_of_WINDS"},"data":[0,0,0,0,0,0,0,0,0,0,0,0,0,0,0,0,0,0,0,0,0,0,0,0,0,0,0,0,0,0,0,0,0,0,0,0,0,0,0,0,0,0,0,0,0,0,0,0,0,0,0,0,0,0,0,0,0,0,-1.5028,-1.5028,0,-1.5021,-1.5021,-1.5021,-1.4987,-1.4986,-1.4986,-1.4985,-1.4978,-1.4979,-1.498,0,0,0,0,0,0,0,0,0,0,0,0,0,-1.5011,-1.5011,-1.5028,-1.5028,-1.5028,-1.5021,-1.5021,-1.5021,-1.4987,-1.4986,-1.4985,-1.4984,-1.4978,-1.4979,-1.498,0,0,0,0,0,0,0,0,0,0,0,0,0,-1.5013,-1.5012,-1.5028,-1.501,-1.5008,-1.5021,-1.5021,-1.5021,-1.4988,-1.4986,-1.4985,-1.4984,-1.4978,-1.4979,-1.498,-1.5009,0,0,-1.4982,-1.4983,0,0,0,0,0,0,0,0,-1.5013,-1.5013,-1.5013,-1.5011,-1.5009,-1.5004,-1.5013,-1.5017,-1.4988,-1.4995,-1.4985,-1.4983,-1.4988,-1.4988,-1.4989,-1.5009,-1.5009,-1.4982,-1.4983,-1.4983,-1.4984,0,0,0,0,0,0,0,-1.5013,-1.5014,-1.5025,-1.5013,-1.5011,-1.5002,-1.5001,-1.5014,-1.4999,-1.4995,-1.4992,-1.4992,-1.4987,-1.4989,-1.4989,-1.5009,-1.4982,-1.4983,-1.4984,-1.4984,-1.5053,-1.5054,0,0,0,0,0,0,-1.5015,-1.5014,-1.5025,-1.5025,-1.5008,-1.5004,-1.5002,-1.5007,-1.4998,-1.4996,-1.4993,-1.499,-1.4988,-1.4988,-1.4989,-1.5023,-1.4983,-1.4984,-1.4985,-1.5051,-1.5053,-1.5054,0,0,0,0,0,0,-1.5015,-1.5016,-1.5026,-1.5019,-1.5019,-1.5005,-1.501,-1.5007,-1.5009,-1.4997,-1.4994,-1.4998,-1.4987,-1.4987,-1.5004,-1.5022,-1.4985,-1.4985,-1.505,-1.5052,-1.5054,-1.5092,0,0,0,0,0,0,-1.5014,-1.5016,-1.5028,-1.5019,-1.502,-1.5042,-1.5012,-1.5008,-1.5011,-1.5007,-1.5001,-1.4998,-1.4986,-1.5003,-1.5005,-1.5023,-1.4986,-1.5048,-1.5051,-1.5053,-1.5089,-1.5095,-1.51,0,0,0,0,0,-1.5014,-1.5039,-1.5028,-1.503,-1.5033,-1.5043,-1.5043,-1.5028,-1.5012,-1.5024,-1.5016,-1.4999,-1.502,-1.5005,-1.5007,-1.5025,-1.5047,-1.505,-1.5053,-1.5087,-1.5094,-1.51,0,0,0,0,0,0,-1.505,-1.5037,-1.5026,-1.5049,-1.5047,-1.5037,-1.5051,-1.5037,-1.504,-1.5036,-1.5017,-1.5016,-1.5036,-1.5032,-1.5016,-1.5054,-1.5031,-1.5034,-1.5056,-1.5063,-1.5068,-1.5069,-1.4987,0,0,0,0,0,-1.5061,-1.5069,-1.5058,-1.5079,-1.5079,-1.5065,-1.5069,-1.5057,-1.5055,-1.5054,-1.5048,-1.5046,-1.5053,-1.5057,-1.5062,-1.5088,-1.5087,-1.5102,-1.5107,-1.5112,-1.5115,-1.5129,-1.5136,-1.5064,-1.5064,-1.5064,0,0,-1.5083,-1.5077,-1.5084,-1.5086,-1.5084,-1.5094,-1.5065,-1.5076,-1.5083,-1.5056,-1.5072,-1.5067,-1.5064,-1.5086,-1.5095,-1.5083,-1.5135,-1.5116,-1.5119,-1.512,-1.5133,-1.514,-1.5146,-1.5066,-1.5066,-1.5065,0,0,-1.5128,-1.5124,-1.5142,-1.514,-1.5136,-1.5127,-1.5131,-1.5123,-1.5119,-1.5135,-1.5114,-1.5122,-1.5134,-1.5133,-1.5133,-1.5178,-1.5163,-1.518,-1.5209,-1.5223,-1.5229,-1.5233,-1.525,-1.5256,-1.5183,-1.5183,-1.5184,0,-1.5156,-1.517,-1.5153,-1.5165,-1.5167,-1.5143,-1.516,-1.5159,-1.5158,-1.516,-1.5146,-1.516,-1.5156,-1.5178,-1.5188,-1.519,-1.5194,-1.5181,-1.5229,-1.5234,-1.5238,-1.5254,-1.526,-1.5186,-1.5185,-1.5185,-1.5185,0,-1.5204,-1.5214,-1.5228,-1.5228,-1.5231,-1.5246,-1.5232,-1.5237,-1.5225,-1.5217,-1.5233,-1.5228,-1.5232,-1.5236,-1.5224,-1.5256,-1.5248,-1.5232,-1.5209,-1.5248,-1.5262,-1.5267,-1.5189,-1.5188,-1.5187,-1.5187,0,0,-1.5273,-1.5262,-1.5268,-1.5267,-1.5261,-1.5268,-1.5282,-1.5286,-1.5291,-1.5291,-1.5302,-1.5312,-1.5297,-1.5298,-1.5286,-1.5298,-1.5334,-1.5281,-1.528,-1.5291,-1.5369,-1.5382,-1.5389,-1.5324,-1.5325,-1.5326,-1.537,0,-1.5316,-1.534,-1.5325,-1.535,-1.5359,-1.5336,-1.5348,-1.5346,-1.5339,-1.5346,-1.5337,-1.5345,-1.5324,-1.5325,-1.5336,-1.5328,-1.535,-1.5324,-1.5335,-1.5335,-1.5337,-1.5396,-1.541,-1.5452,-1.5375,-1.5376,-1.5377,0,-1.5371,-1.5373,-1.5399,-1.5392,-1.5395,-1.5406,-1.5408,-1.5415,-1.5412,-1.5406,-1.5407,-1.5392,-1.5405,-1.5381,-1.54,-1.5383,-1.5386,-1.5383,-1.5384,-1.5385,-1.5359,-1.54,-1.5464,-1.5471,-1.5385,-1.5384,-1.5384,0,-1.5418,-1.5428,-1.5445,-1.5445,-1.5437,-1.5445,-1.5442,-1.5438,-1.5441,-1.5443,-1.5444,-1.5448,-1.545,-1.5453,-1.5439,-1.5423,-1.5459,-1.5434,-1.5455,-1.5456,-1.5464,-1.5464,-1.5531,-1.5465,-1.5465,-1.5465,-1.5465,0,-1.5469,-1.5487,-1.5466,-1.5477,-1.5496,-1.5478,-1.5498,-1.5492,-1.5488,-1.5498,-1.5477,-1.5486,-1.5468,-1.5475,-1.5464,-1.5481,-1.5482,-1.5478,-1.5475,-1.548,-1.5481,-1.5482,-1.5479,-1.5467,-1.5467,-1.5466,-1.5466,0,-1.5526,-1.5513,-1.5531,-1.5521,-1.5519,-1.5533,-1.5525,-1.5535,-1.5526,-1.5538,-1.554,-1.5526,-1.5534,-1.552,-1.5526,-1.5519,-1.5543,-1.5535,-1.5544,-1.5542,-1.5564,-1.5562,-1.5635,-1.5644,-1.5572,-1.5572,-1.5573,0,-1.556,-1.5573,-1.5564,-1.5569,-1.5567,-1.5575,-1.5578,-1.5561,-1.5565,-1.5563,-1.5573,-1.5578,-1.5582,-1.5595,-1.5586,-1.559,-1.5583,-1.5608,-1.5584,-1.5588,-1.5584,-1.5584,-1.5585,-1.5614,-1.5614,-1.5615,-1.5616,0,-1.5621,-1.5614,-1.5619,-1.5622,-1.5626,-1.5628,-1.5628,-1.5633,-1.5615,-1.5621,-1.5628,-1.5631,-1.5637,-1.5643,-1.5645,-1.5642,-1.5626,-1.5623,-1.5629,-1.5634,-1.5639,-1.5638,-1.5559,-1.5622,-1.5621,-1.5621,-1.5621,-1.562,-1.5668,-1.5678,-1.5674,-1.568,-1.5679,-1.5679,-1.5688,-1.568,-1.5686,-1.5689,-1.5679,-1.5689,-1.5685,-1.5687,-1.5685,-1.5693,-1.5682,-1.5689,-1.5691,-1.5693,-1.5697,-1.5637,-1.5693,-1.5693,-1.5693,-1.5692,-1.5692,0,-1.5728,-1.5724,-1.573,-1.5731,-1.5736,-1.5721,-1.572,-1.5725,-1.5734,-1.5732,-1.5736,-1.5745,-1.5751,-1.5742,-1.5746,-1.5754,-1.5747,-1.5756,-1.5756,-1.5755,-1.5706,-1.5702,-1.5762,-1.5762,-1.5762,-1.5762,-1.5762,-1.5762,-1.5761,-1.5778,-1.577,-1.5786,-1.5782,-1.5791,-1.5792,-1.5793,-1.5791,-1.5802,-1.5806,-1.58,-1.5796,-1.58,-1.5804,-1.5801,-1.5804,-1.5816,-1.5811,-1.5765,-1.5759,-1.5752,-1.5748,-1.5817,-1.5817,-1.5859,-1.586,-1.586]}]]